Location: *
(10.5081°N, 66.9194°W)
Time: 04:41:49
(UTC+00:00)

YAOGAN 1 - Pass Details

Date: 30 March 2020
Orbit: 618 x 620 km, 97.9° (Epoch: 24 May)

Event Time Altitude Azimuth Distance (km) Brightness Sun altitude
Rises 23:34:42 0° 175° (S) 2,884 5.9 -14.6°
Reaches altitude 10° 23:36:54 10° 178° (S) 1,979 5.1 -15.1°
Maximum altitude 23:41:09 61° 259° (WSW) 701 3.1 -16.2°
Drops below altitude 10° 23:45:24 10° 339° (NNW) 1,979 5.5 -17.2°
Sets 23:47:37 0° 343° (NNW) 2,884 6.3 -17.7°
